When you browse on this site, cookies collect data to enhance your experience and personalize the content and advertising you see.
Visit our Privacy Policy to learn more. By continuing to use the site, you agree to this use of cookies and data.
  • In Czech Republic
  • List of Countries
  • For 7 days
  • Water Temperature
  • Weather Map
  • Weather Widgets
  • user-avatar
    Login

    Hourly Weather Artashat

    Today, 24 February, Monday

    Time Temperature Precipitation Wind Pressure Humidity
    00:00 -6°C° 0 mm 2 mps 598 mmHg 73%
    01:00 -7°C° 0 mm 2 mps 598 mmHg 72%
    02:00 -7°C° 0 mm 2 mps 598 mmHg 71%
    03:00 -4°C° 0 mm 1 mps 598 mmHg 73%
    04:00 -4°C° 0 mm 1 mps 598 mmHg 72%
    05:00 -6°C° 0 mm 1 mps 598 mmHg 71%
    06:00 -7°C° 0 mm 2 mps 597 mmHg 71%
    07:00 -4°C° 0 mm 1 mps 598 mmHg 68%
    08:00 -2°C° 0 mm 1 mps 598 mmHg 66%
    09:00 -1°C° 0 mm 1 mps 599 mmHg 64%
    10:00 0°C° 0 mm 1 mps 599 mmHg 64%
    11:00 +1°C° 0 mm 1 mps 599 mmHg 63%
    12:00 +2°C° 0 mm 1 mps 598 mmHg 63%
    13:00 +2°C° 0 mm 1 mps 598 mmHg 64%
    14:00 +2°C° 0 mm 2 mps 598 mmHg 64%
    15:00 +2°C° 0 mm 2 mps 597 mmHg 65%
    16:00 +1°C° 0 mm 2 mps 597 mmHg 68%
    17:00 -1°C° 0 mm 2 mps 596 mmHg 71%
    18:00 -2°C° 0 mm 3 mps 596 mmHg 74%
    19:00 -4°C° 0 mm 3 mps 596 mmHg 74%
    20:00 -4°C° 0 mm 3 mps 595 mmHg 73%
    21:00 -4°C° 0 mm 3 mps 595 mmHg 73%
    22:00 -4°C° 0 mm 3 mps 595 mmHg 73%
    23:00 -3°C° 0 mm 2 mps 594 mmHg 73%

    Tomorrow, 25 February, Tuesday

    Time Temperature Precipitation Wind Pressure Humidity
    00:00 -3°C° 0 mm 2 mps 594 mmHg 73%
    01:00 -4°C° 0 mm 2 mps 594 mmHg 73%
    02:00 -4°C° 0 mm 2 mps 593 mmHg 73%
    03:00 -4°C° 0 mm 2 mps 592 mmHg 74%
    04:00 -4°C° 0 mm 2 mps 592 mmHg 74%
    05:00 -4°C° 0 mm 2 mps 592 mmHg 73%
    06:00 -4°C° 0 mm 2 mps 591 mmHg 73%
    07:00 -4°C° 0 mm 2 mps 592 mmHg 73%
    08:00 -3°C° 0 mm 2 mps 592 mmHg 72%
    09:00 -2°C° 0 mm 2 mps 592 mmHg 72%
    10:00 -2°C° 0.4 mm 3 mps 592 mmHg 74%
    11:00 -2°C° 0.4 mm 3 mps 592 mmHg 75%
    12:00 -3°C° 0.4 mm 4 mps 592 mmHg 77%
    13:00 -5°C° 1 mm 5 mps 592 mmHg 77%
    14:00 -6°C° 1 mm 5 mps 592 mmHg 77%
    15:00 -8°C° 1 mm 6 mps 591 mmHg 77%
    16:00 -8°C° 0.1 mm 5 mps 592 mmHg 73%
    17:00 -8°C° 0.1 mm 4 mps 593 mmHg 68%
    18:00 -9°C° 0.1 mm 4 mps 593 mmHg 64%
    19:00 -9°C° 0 mm 3 mps 594 mmHg 62%
    20:00 -9°C° 0 mm 3 mps 595 mmHg 60%
    21:00 -10°C° 0 mm 3 mps 595 mmHg 58%
    22:00 -10°C° 0 mm 3 mps 595 mmHg 57%
    23:00 -10°C° 0 mm 2 mps 595 mmHg 56%

    Day after tomorrow, 26 February, Wednesday

    Time Temperature Precipitation Wind Pressure Humidity
    00:00 -10°C° 0 mm 2 mps 595 mmHg 55%
    01:00 -10°C° 0 mm 2 mps 595 mmHg 55%
    02:00 -10°C° 0 mm 2 mps 595 mmHg 54%
    03:00 -10°C° 0 mm 2 mps 595 mmHg 53%
    04:00 -10°C° 0 mm 1 mps 595 mmHg 52%
    05:00 -10°C° 0 mm 1 mps 595 mmHg 51%
    06:00 -10°C° 0 mm 1 mps 595 mmHg 50%
    07:00 -9°C° 0 mm 1 mps 596 mmHg 48%
    08:00 -8°C° 0 mm 0 mps 597 mmHg 46%
    09:00 -7°C° 0 mm 0 mps 598 mmHg 44%
    10:00 -6°C° 0 mm 0 mps 598 mmHg 44%
    11:00 -4°C° 0 mm 1 mps 598 mmHg 44%
    12:00 -3°C° 0 mm 1 mps 598 mmHg 44%
    13:00 -2°C° 0 mm 1 mps 598 mmHg 46%
    14:00 -2°C° 0 mm 1 mps 598 mmHg 47%
    15:00 -1°C° 0 mm 1 mps 599 mmHg 49%
    16:00 -2°C° 0 mm 1 mps 598 mmHg 52%
    17:00 -4°C° 0 mm 0 mps 598 mmHg 56%
    18:00 -6°C° 0 mm 0 mps 598 mmHg 59%
    19:00 -6°C° 0 mm 0 mps 599 mmHg 57%
    20:00 -6°C° 0 mm 0 mps 599 mmHg 55%
    21:00 -6°C° 0 mm 1 mps 599 mmHg 52%
    22:00 -6°C° 0 mm 1 mps 599 mmHg 51%
    23:00 -6°C° 0 mm 1 mps 599 mmHg 49%

    27 February, Thursday

    Time Temperature Precipitation Wind Pressure Humidity
    00:00 -6°C° 0 mm 1 mps 599 mmHg 47%
    01:00 -6°C° 0 mm 1 mps 599 mmHg 46%
    02:00 -6°C° 0 mm 1 mps 599 mmHg 45%
    03:00 -6°C° 0 mm 1 mps 600 mmHg 44%
    04:00 -6°C° 0 mm 1 mps 600 mmHg 43%
    05:00 -6°C° 0 mm 1 mps 600 mmHg 42%
    06:00 -6°C° 0 mm 1 mps 599 mmHg 41%
    07:00 -4°C° 0 mm 1 mps 600 mmHg 40%
    08:00 -3°C° 0 mm 1 mps 601 mmHg 40%
    09:00 -2°C° 0 mm 0 mps 602 mmHg 39%
    10:00 -1°C° 0 mm 0 mps 602 mmHg 42%
    11:00 0°C° 0 mm 0 mps 602 mmHg 45%
    12:00 +1°C° 0 mm 0 mps 602 mmHg 48%
    13:00 +2°C° 0 mm 1 mps 601 mmHg 49%
    14:00 +2°C° 0 mm 1 mps 601 mmHg 49%
    15:00 +3°C° 0 mm 1 mps 601 mmHg 50%
    16:00 +1°C° 0 mm 1 mps 600 mmHg 51%
    17:00 0°C° 0 mm 1 mps 599 mmHg 52%
    18:00 -3°C° 0 mm 0 mps 599 mmHg 53%
    19:00 -2°C° 0 mm 1 mps 599 mmHg 50%
    20:00 -1°C° 0 mm 1 mps 599 mmHg 48%
    21:00 -1°C° 0 mm 1 mps 599 mmHg 46%
    22:00 -1°C° 0 mm 1 mps 599 mmHg 45%
    23:00 -2°C° 0 mm 1 mps 599 mmHg 44%

    28 February, Friday

    Time Temperature Precipitation Wind Pressure Humidity
    00:00 -2°C° 0 mm 1 mps 598 mmHg 42%
    01:00 -2°C° 0 mm 1 mps 598 mmHg 42%
    02:00 -2°C° 0 mm 1 mps 598 mmHg 41%
    03:00 -2°C° 0 mm 1 mps 597 mmHg 41%
    04:00 -2°C° 0 mm 1 mps 597 mmHg 41%
    05:00 -2°C° 0 mm 1 mps 596 mmHg 41%
    06:00 -2°C° 0 mm 1 mps 596 mmHg 41%
    07:00 -1°C° 0 mm 1 mps 596 mmHg 41%
    08:00 0°C° 0 mm 1 mps 597 mmHg 42%
    09:00 +1°C° 0 mm 1 mps 597 mmHg 42%
    10:00 +2°C° 0 mm 1 mps 597 mmHg 44%
    11:00 +3°C° 0 mm 1 mps 597 mmHg 47%
    12:00 +3°C° 0 mm 1 mps 597 mmHg 49%
    13:00 +4°C° 0 mm 1 mps 597 mmHg 50%
    14:00 +4°C° 0 mm 1 mps 596 mmHg 50%
    15:00 +4°C° 0 mm 1 mps 596 mmHg 51%
    16:00 +3°C° 0 mm 1 mps 596 mmHg 55%
    17:00 +1°C° 0 mm 2 mps 595 mmHg 58%
    18:00 -1°C° 0 mm 2 mps 595 mmHg 61%
    19:00 -2°C° 0 mm 2 mps 595 mmHg 62%
    20:00 -2°C° 0 mm 2 mps 595 mmHg 64%
    21:00 -3°C° 0 mm 2 mps 594 mmHg 65%
    22:00 -3°C° 0 mm 2 mps 594 mmHg 65%
    23:00 -3°C° 0 mm 2 mps 594 mmHg 65%

    29 February, Saturday

    Time Temperature Precipitation Wind Pressure Humidity
    00:00 -3°C° 0 mm 2 mps 594 mmHg 64%
    01:00 -3°C° 0 mm 2 mps 594 mmHg 65%
    02:00 -3°C° 0 mm 2 mps 594 mmHg 65%
    03:00 -3°C° 0 mm 2 mps 594 mmHg 65%
    04:00 -3°C° 0 mm 2 mps 594 mmHg 66%
    05:00 -3°C° 0 mm 2 mps 594 mmHg 67%
    06:00 -4°C° 0 mm 2 mps 594 mmHg 68%
    07:00 -3°C° 0 mm 2 mps 594 mmHg 67%
    08:00 -2°C° 0 mm 2 mps 595 mmHg 65%
    09:00 -1°C° 0 mm 2 mps 595 mmHg 64%
    10:00 +1°C° 0 mm 2 mps 595 mmHg 63%
    11:00 +2°C° 0 mm 2 mps 595 mmHg 62%
    12:00 +3°C° 0 mm 2 mps 594 mmHg 61%
    13:00 +3°C° 0 mm 2 mps 594 mmHg 60%
    14:00 +4°C° 0 mm 2 mps 593 mmHg 60%
    15:00 +4°C° 0 mm 2 mps 593 mmHg 60%
    16:00 +3°C° 0.2 mm 2 mps 593 mmHg 66%
    17:00 +1°C° 0.2 mm 3 mps 592 mmHg 73%
    18:00 -1°C° 0.2 mm 3 mps 592 mmHg 80%
    19:00 -1°C° 0.9 mm 3 mps 592 mmHg 83%
    20:00 -2°C° 0.9 mm 3 mps 593 mmHg 86%
    21:00 -4°C° 0.9 mm 4 mps 593 mmHg 89%
    22:00 -5°C° 0.2 mm 4 mps 593 mmHg 85%
    23:00 -7°C° 0.2 mm 5 mps 594 mmHg 80%
    Show more